This demonstration page uses our WeatherBlox Daily Observations layout. Learn more.

Left ArrowRight Arrow

38.88101, -77.10428

Hourly Observations for December 23, 2020

Temp ( °F °C ) Dew Point ( °F °C ) Humidity (%) Winds ( mph kmh ) Pressure ( in mb ) Visibility ( mi km ) Precip ( " mm )
12:52 am 00:52 Mostly Clear 39 3.9 29 -1.7 67 67 SSW 6 9 30.31 1026 10 16 0.00 0.00
1:52 am 01:52 Mostly Clear 37 2.8 30 -1.1 76 76 SSE 6 9 30.31 1027 10 16 0.00 0.00
2:52 am 02:52 Mostly Clear 35 1.7 30 -1.1 82 82 Calm 30.33 1027 10 16 0.00 0.00
3:52 am 03:52 Mostly Clear 34 1.1 29 -1.7 82 82 SSW 5 7 30.36 1028 10 16 0.00 0.00
4:52 am 04:52 Clear 33 0.6 28 -2.2 82 82 SSW 3 6 30.37 1029 10 16 0.00 0.00
5:52 am 05:52 Mostly Clear 32 0 28 -2.2 85 85 SW 5 7 30.38 1029 10 16 0.00 0.00
6:52 am 06:52 Mostly Cloudy 33 0.6 28 -2.2 82 82 SW 3 6 30.40 1030 10 16 0.00 0.00
7:52 am 07:52 Mostly Cloudy 34 1.1 28 -2.2 79 79 Calm 30.43 1030 10 16 0.00 0.00
8:52 am 08:52 Cloudy 37 2.8 31 -0.6 79 79 Calm 30.45 1031 10 16 0.00 0.00
9:52 am 09:52 Cloudy 39 3.9 31 -0.6 73 73 S 3 6 30.46 1031 10 16 0.00 0.00
10:52 am 10:52 Cloudy 43 6.1 31 -0.6 63 63 S 7 11 30.42 1030 10 16 0.00 0.00
11:52 am 11:52 Cloudy 46 7.8 30 -1.1 54 54 S 7 11 30.39 1029 10 16 0.00 0.00
12:52 pm 12:52 Cloudy 47 8.3 31 -0.6 54 54 S 10 17 30.35 1028 10 16 0.00 0.00
1:52 pm 13:52 Cloudy 47 8.3 30 -1.1 52 52 S 15 24 30.33 1027 10 16 0.00 0.00
2:52 pm 14:52 Cloudy 47 8.3 31 -0.6 54 54 S 12 19 30.32 1027 10 16 0.00 0.00
3:52 pm 15:52 Mostly Cloudy 47 8.3 33 0.6 59 59 S 10 17 30.32 1027 10 16 0.00 0.00
4:52 pm 16:52 Partly Cloudy 45 7.2 31 -0.6 58 58 SSE 10 17 30.30 1026 10 16 0.00 0.00
5:52 pm 17:52 Mostly Cloudy 44 6.7 32 0 63 63 SSE 9 15 30.31 1027 10 16 0.00 0.00
6:52 pm 18:52 Mostly Cloudy 42 5.6 34 1.1 73 73 S 8 13 30.31 1026 10 16 0.00 0.00
7:52 pm 19:52 Mostly Cloudy 43 6.1 33 0.6 68 68 SSE 10 17 30.31 1026 10 16 0.00 0.00
8:52 pm 20:52 Mostly Cloudy 43 6.1 35 1.7 74 74 SSE 10 17 30.29 1026 10 16 0.00 0.00
9:52 pm 21:52 Clear 43 6.1 35 1.7 74 74 SSE 8 13 30.26 1025 10 16 0.00 0.00
10:52 pm 22:52 Cloudy 42 5.6 36 2.2 79 79 Calm 30.25 1025 10 16 0.00 0.00
11:52 pm 23:52 Cloudy 44 6.7 37 2.8 76 76 S 7 11 30.24 1024 10 16 0.00 0.00

Powered by AerisWeather